Terminal Aerodrome Forecast
Issued by NWS Quad Cities IA IL

Home | Current Version | Previous Version | Text Only | Print | Product List | Glossary On
Versions: 1 2 3 4 5 6 7 8 9 10 11 12 13 14 15 16 17
000
FTUS43 KDVN 170500
TAFMLI
TAF
KMLI 170520Z 1706/1806 17012G22KT P6SM SCT050 BKN100
     FM171200 27009KT P6SM SCT030 BKN120
     FM171500 32004KT P6SM BKN150
     FM180100 29004KT P6SM SCT250=

USA.gov is the U.S. government's official web portal to all federal, state and local government web resources and services.